Location: Il Ritiro
(43.4167°N, 13.1333°E)
Time: 15:58:20
(UTC+00:00)

BREEZE M DEB (TANK) - Pass Details

Date: 05 July 2020
Orbit: 285 x 14545 km, 49.5° (Epoch: 10 August)

Event Time Altitude Azimuth Distance (km) Brightness Sun altitude
Rises 21:22:14 0° 294° (WNW) 2,245 6.8 -19.2°
Reaches altitude 10° 21:24:18 10° 285° (WNW) 1,167 5.1 -19.4°
Enters shadow 21:25:12 20° 272° (W) 743 3.8 -19.5°
